Elbert, CO

5:14 AM MST on December 11, 2016 (GMT -0700)
Monument Pass

Weather History for KMNH - March, 2013

Change the Weather History Date:

Wednesday, March 20, 2013

  Actual Average Record
Temperature  
Mean Temperature 32 °F -  
Max Temperature 50 °F - 64 °F (2007)
Min Temperature 15 °F - 12 °F (2006)
Degree Days  
Heating Degree Days 32    
Month to date heating degree days  
Cooling Degree Days 0    
Month to date cooling degree days  
Moisture  
Dew Point 15 °F    
Average Humidity 53    
Maximum Humidity 93    
Minimum Humidity 22    
Precipitation  
Precipitation 0.00 in - 0.33 in (2008)
Sea Level Pressure  
Sea Level Pressure 30.01 in    
Wind  
Wind Speed 10 mph (SSW)    
Max Wind Speed 24 mph    
Max Gust Speed 22 mph    
Visibility 10 miles    
Events      
T = Trace of Precipitation, MM = Missing Value Source: NWS Daily Summary

Daily Weather History Graph

Daily Weather History Graph

Search for Another Location

Airport or City:

Trip Planner

Search our weather history database for the weather conditions in past years. The results will help you decide how hot, cold, wet, or windy it might be!

Date:

Astronomy

Mar. 20, 2013 Rise Set
Actual Time 7:01 AM MDT 7:10 PM MDT
Civil Twilight 6:34 AM MDT 7:37 PM MDT
Nautical Twilight 6:03 AM MDT 8:08 PM MDT
Astronomical Twilight 5:31 AM MDT 8:40 PM MDT
Moon 12:50 PM MDT (3/20) 2:40 AM MDT (3/20)
Length of Visible Light 13h 02m
Length of Day
12h 09m
First Quarter, 60% of the Moon is Illuminated
Mar 20
First Quarter
Mar 27
Full
Apr 2
Last Quarter
Apr 10
New
Apr 18
First Quarter

Hourly Weather History & Observations

Time (MDT) Temp. Windchill Dew Point Humidity Pressure Visibility Wind Dir Wind Speed Gust Speed Precip Events Conditions
12:14 AM 21.2 °F 13.6 °F 14.0 °F 74% 30.29 in 10.0 mi North 5.8 mph - N/A   Clear
12:34 AM 21.2 °F 13.6 °F 15.8 °F 80% 30.28 in 10.0 mi NNE 5.8 mph - N/A   Clear
12:54 AM 19.4 °F 12.8 °F 15.8 °F 86% 30.28 in 10.0 mi NE 4.6 mph - N/A   Clear
1:14 AM 19.4 °F - 15.8 °F 86% 30.26 in 10.0 mi Calm Calm - N/A   Clear
1:34 AM 17.6 °F 12.3 °F 14.0 °F 86% 30.26 in 10.0 mi South 3.5 mph - N/A   Clear
1:54 AM 17.6 °F 10.7 °F 14.0 °F 86% 30.25 in 10.0 mi South 4.6 mph - N/A   Clear
2:14 AM 15.8 °F 6.1 °F 14.0 °F 93% 30.23 in 10.0 mi South 6.9 mph - N/A   Clear
2:34 AM 17.6 °F 7.3 °F 14.0 °F 86% 30.23 in 10.0 mi South 8.1 mph - N/A   Clear
2:54 AM 17.6 °F 6.4 °F 14.0 °F 86% 30.21 in 10.0 mi SSW 9.2 mph - N/A   Clear
3:14 AM 17.6 °F 6.4 °F 14.0 °F 86% 30.21 in 10.0 mi SSW 9.2 mph - N/A   Clear
3:32 AM 19.4 °F 9.5 °F 14.0 °F 80% 30.20 in 10.0 mi SSW 8.1 mph - N/A   Clear
3:54 AM 21.2 °F 9.5 °F 14.0 °F 74% 30.19 in 10.0 mi SSW 11.5 mph - N/A   Clear
4:13 AM 21.2 °F 7.8 °F 14.0 °F 74% 30.18 in 10.0 mi SSW 15.0 mph - N/A   Clear
4:34 AM 23.0 °F 9.2 °F 14.0 °F 68% 30.17 in 10.0 mi SSW 17.3 mph 21.9 mph N/A   Clear
4:54 AM 23.0 °F 9.6 °F 14.0 °F 68% 30.17 in 10.0 mi SSW 16.1 mph - N/A   Clear
5:14 AM 23.0 °F 8.3 °F 12.2 °F 63% 30.17 in 10.0 mi SSW 19.6 mph - N/A   Clear
5:34 AM 21.2 °F 7.3 °F 14.0 °F 74% 30.16 in 10.0 mi South 16.1 mph - N/A   Clear
5:54 AM 21.2 °F 8.3 °F 14.0 °F 74% 30.16 in 10.0 mi South 13.8 mph - N/A   Clear
6:13 AM 21.2 °F 6.0 °F 14.0 °F 74% 30.16 in 10.0 mi South 19.6 mph - N/A   Clear
6:34 AM 21.2 °F 8.3 °F 14.0 °F 74% 30.15 in 10.0 mi South 13.8 mph - N/A   Clear
6:54 AM 21.2 °F 8.3 °F 14.0 °F 74% 30.15 in 10.0 mi South 13.8 mph - N/A   Clear
7:14 AM 21.2 °F 8.3 °F 14.0 °F 74% 30.14 in 10.0 mi South 13.8 mph 17.3 mph N/A   Clear
7:34 AM 21.2 °F 6.4 °F 14.0 °F 74% 30.13 in 10.0 mi South 18.4 mph - N/A   Clear
7:54 AM 23.0 °F 10.1 °F 14.0 °F 68% 30.13 in 10.0 mi South 15.0 mph - N/A   Clear
8:14 AM 24.8 °F 12.9 °F 15.8 °F 69% 30.13 in 10.0 mi SSE 13.8 mph - N/A   Clear
8:54 AM 26.6 °F 11.7 °F 14.0 °F 59% 30.11 in 10.0 mi SSW 24.2 mph - N/A   Clear
9:13 AM 28.4 °F 15.1 °F 14.0 °F 55% 30.10 in 10.0 mi SSW 20.7 mph - N/A   Clear
9:54 AM 32.0 °F 21.2 °F 14.0 °F 48% 30.08 in 10.0 mi South 16.1 mph - N/A   Clear
10:14 AM 32.0 °F 22.5 °F 14.0 °F 48% 30.07 in 10.0 mi South 12.7 mph - N/A   Clear
10:33 AM 32.0 °F 21.6 °F 14.0 °F 48% 30.06 in 10.0 mi South 15.0 mph 19.6 mph N/A   Clear
10:54 AM 35.6 °F 27.1 °F 14.0 °F 41% 30.05 in 10.0 mi South 12.7 mph - N/A   Clear
11:14 AM 41.0 °F 33.9 °F 14.0 °F 33% 30.03 in 10.0 mi SSW 12.7 mph - N/A   Clear
11:34 AM 42.8 °F 35.8 °F 12.2 °F 29% 30.02 in 10.0 mi SSW 13.8 mph - N/A   Clear
11:54 AM 44.6 °F 39.2 °F 12.2 °F 27% 30.01 in 10.0 mi SSW 10.4 mph - N/A   Clear
12:14 PM 42.8 °F 37.0 °F 12.2 °F 29% 30.00 in 10.0 mi SSW 10.4 mph - N/A   Clear
12:33 PM 46.4 °F 41.9 °F 8.6 °F 22% 29.99 in 10.0 mi South 9.2 mph - N/A   Clear
12:53 PM 50.0 °F - 14.0 °F 24% 29.97 in 10.0 mi SSE 15.0 mph - N/A   Clear
1:14 PM 48.2 °F - 14.0 °F 25% 29.95 in 10.0 mi SSE 13.8 mph - N/A   Clear
1:34 PM 50.0 °F - 14.0 °F 24% 29.93 in 10.0 mi SSE 15.0 mph - N/A   Clear
1:54 PM 50.0 °F - 12.2 °F 22% 29.92 in 10.0 mi SSE 16.1 mph 20.7 mph N/A   Clear
2:14 PM 50.0 °F - 14.0 °F 24% 29.91 in 10.0 mi SSE 16.1 mph 21.9 mph N/A   Clear
2:34 PM 48.2 °F - 15.8 °F 27% 29.89 in 10.0 mi SSE 15.0 mph 18.4 mph N/A   Clear
2:54 PM 50.0 °F - 15.8 °F 26% 29.88 in 10.0 mi South 15.0 mph 20.7 mph N/A   Clear
3:14 PM 50.0 °F - 17.6 °F 28% 29.87 in 10.0 mi SSW 11.5 mph - N/A   Clear
3:33 PM 48.2 °F - 15.8 °F 27% 29.88 in 10.0 mi SW 11.5 mph - N/A   Clear
3:54 PM 44.6 °F 38.4 °F 14.0 °F 29% 29.87 in 10.0 mi SW 12.7 mph - N/A   Mostly Cloudy
4:14 PM 44.6 °F 39.2 °F 14.0 °F 29% 29.87 in 10.0 mi SSW 10.4 mph - N/A   Overcast
4:34 PM 44.6 °F 40.2 °F 14.0 °F 29% 29.87 in 10.0 mi SSW 8.1 mph - N/A   Scattered Clouds
4:54 PM 42.8 °F 37.5 °F 14.0 °F 31% 29.86 in 10.0 mi SW 9.2 mph - N/A   Clear
5:14 PM 42.8 °F 37.0 °F 14.0 °F 31% 29.86 in 10.0 mi SW 10.4 mph - N/A   Clear
5:34 PM 42.8 °F 36.6 °F 15.8 °F 34% 29.85 in 10.0 mi WSW 11.5 mph - N/A   Clear
5:54 PM 42.8 °F 37.5 °F 14.0 °F 31% 29.85 in 10.0 mi SW 9.2 mph - N/A   Clear
6:13 PM 42.8 °F 38.0 °F 14.0 °F 31% 29.85 in 10.0 mi SW 8.1 mph - N/A   Clear
6:33 PM 42.8 °F 38.0 °F 14.0 °F 31% 29.84 in 10.0 mi SW 8.1 mph - N/A   Clear
6:54 PM 41.0 °F 35.2 °F 15.8 °F 36% 29.84 in 10.0 mi SW 9.2 mph - N/A   Clear
7:14 PM 39.2 °F 33.0 °F 14.0 °F 36% 29.84 in 10.0 mi SW 9.2 mph - N/A   Clear
7:34 PM 37.4 °F 31.4 °F 15.8 °F 41% 29.84 in 10.0 mi SW 8.1 mph - N/A   Clear
7:54 PM 35.6 °F 29.2 °F 15.8 °F 44% 29.82 in 10.0 mi SW 8.1 mph - N/A   Clear
8:14 PM 33.8 °F 27.7 °F 17.6 °F 52% 29.83 in 10.0 mi SW 6.9 mph - N/A   Clear
8:34 PM 33.8 °F 28.6 °F 17.6 °F 52% 29.82 in 10.0 mi SW 5.8 mph - N/A   Clear
8:54 PM 32.0 °F 28.7 °F 19.4 °F 60% 29.82 in 10.0 mi SW 3.5 mph - N/A   Clear
9:13 PM 32.0 °F 27.5 °F 19.4 °F 60% 29.82 in 10.0 mi SW 4.6 mph - N/A   Clear
9:34 PM 32.0 °F 28.7 °F 17.6 °F 55% 29.81 in 10.0 mi SW 3.5 mph - N/A   Clear
9:54 PM 32.0 °F 26.4 °F 19.4 °F 60% 29.81 in 10.0 mi SW 5.8 mph - N/A   Clear
10:14 PM 32.0 °F 27.5 °F 19.4 °F 60% 29.81 in 10.0 mi SW 4.6 mph - N/A   Clear
10:34 PM 32.0 °F 27.5 °F 19.4 °F 60% 29.79 in 10.0 mi SW 4.6 mph - N/A   Clear
10:54 PM 35.6 °F 29.2 °F 19.4 °F 52% 29.79 in 10.0 mi SW 8.1 mph - N/A   Clear
11:14 PM 32.0 °F 25.6 °F 21.2 °F 64% 29.79 in 10.0 mi SW 6.9 mph - N/A   Clear
11:34 PM 33.8 °F 27.7 °F 19.4 °F 56% 29.78 in 10.0 mi WSW 6.9 mph - N/A   Clear